[[{"header":{"parameterUnit":"m.s-1","parameterCategory":1,"la1":30.2991,"la2":30.254,"lo1":-89.0895,"lo2":-89.0444,"dy":0.0017,"dx":0.0017,"nx":28,"ny":28,"refTime":"2025-08-21T03:00:00:Z","depth":0,"parameterNumber":2,"parameterNumberName":"U-component_of_WINDS"},"data":[0,0,0,0,0,0,0,0,0,0,0,0,0,0,0,0,0,0,0,0,0,0,0,0,0,0,0,0,0,0,0,0,0,0,0,0,0,0,0,0,0,0,0,0,0,0,0,0,0,0,0,0,0,0,0,0,0,0,0.1256,0.1255,0,0.1198,0.1197,0.1197,0.1134,0.1134,0.1133,0.1132,0.1077,0.1077,0.1076,0,0,0,0,0,0,0,0,0,0,0,0,0,0.1315,0.1314,0.1256,0.1255,0.1254,0.1198,0.1197,0.1197,0.1135,0.1134,0.1132,0.1131,0.1077,0.1077,0.1076,0,0,0,0,0,0,0,0,0,0,0,0,0,0.1277,0.1314,0.1256,0.1216,0.1212,0.1198,0.1197,0.1196,0.1135,0.1134,0.1132,0.1131,0.1078,0.1077,0.1076,0.1097,0,0,0.1073,0.1073,0,0,0,0,0,0,0,0,0.1279,0.1275,0.1223,0.1219,0.1214,0.1172,0.1198,0.1163,0.1135,0.1164,0.1132,0.113,0.111,0.1106,0.1099,0.1095,0.1093,0.1073,0.1072,0.1072,0.1072,0,0,0,0,0,0,0,0.1282,0.1277,0.1233,0.1222,0.1217,0.1203,0.1196,0.1191,0.1146,0.1162,0.1157,0.1151,0.1108,0.11,0.1097,0.1092,0.1073,0.1072,0.1072,0.1071,0.1102,0.1103,0,0,0,0,0,0,0.129,0.1279,0.1235,0.1231,0.1244,0.1203,0.1195,0.1187,0.1146,0.1138,0.1152,0.1148,0.1102,0.1098,0.1095,0.1117,0.1072,0.1071,0.1071,0.11,0.1102,0.1104,0,0,0,0,0,0,0.1291,0.1286,0.1237,0.1254,0.1246,0.1203,0.1195,0.1187,0.1179,0.1138,0.113,0.1152,0.1101,0.1096,0.1097,0.1114,0.1071,0.107,0.1099,0.1101,0.1103,0.1161,0,0,0,0,0,0,0.1293,0.1287,0.1294,0.1254,0.1246,0.1239,0.1196,0.1186,0.1177,0.1171,0.1136,0.1129,0.1099,0.1098,0.1096,0.1112,0.1069,0.1097,0.11,0.1102,0.1157,0.1165,0.1171,0,0,0,0,0,0.1296,0.1314,0.1295,0.129,0.1254,0.124,0.1235,0.1199,0.1178,0.1186,0.1159,0.113,0.1113,0.1099,0.1096,0.1112,0.1096,0.1099,0.1102,0.1154,0.1163,0.1171,0,0,0,0,0,0,0.1359,0.1308,0.1286,0.1292,0.1271,0.123,0.1238,0.121,0.1195,0.1191,0.1148,0.1141,0.1147,0.1129,0.1115,0.113,0.11,0.1103,0.1141,0.1149,0.1156,0.116,0.1069,0,0,0,0,0,0.1373,0.1365,0.1322,0.1332,0.1322,0.1282,0.1275,0.1248,0.1225,0.1216,0.119,0.117,0.1159,0.1153,0.1141,0.1154,0.1146,0.1164,0.1171,0.1177,0.1179,0.1184,0.1192,0.1114,0.1114,0.1113,0,0,0.1404,0.1375,0.1373,0.1344,0.1324,0.1317,0.1275,0.127,0.1265,0.1216,0.1214,0.1194,0.1169,0.1175,0.1177,0.1161,0.1199,0.118,0.1185,0.1185,0.1188,0.1196,0.1202,0.1116,0.1115,0.1115,0,0,0.1455,0.1433,0.1437,0.1418,0.1388,0.1361,0.1362,0.1325,0.1309,0.1306,0.1269,0.1263,0.1247,0.1229,0.1218,0.1262,0.1235,0.126,0.1296,0.1301,0.1307,0.1313,0.1328,0.1334,0.1263,0.1263,0.1263,0,0.1497,0.1484,0.1444,0.1441,0.1429,0.1383,0.1388,0.1371,0.134,0.1333,0.1315,0.1292,0.1272,0.1273,0.1284,0.1277,0.1277,0.1264,0.131,0.1314,0.1319,0.1333,0.1339,0.1266,0.1266,0.1265,0.1265,0,0.1537,0.1529,0.1537,0.1505,0.1494,0.1496,0.1456,0.1451,0.1425,0.1401,0.1398,0.1372,0.1354,0.1352,0.1328,0.135,0.1341,0.1317,0.1286,0.133,0.1343,0.1348,0.1271,0.127,0.1269,0.1268,0,0,0.1627,0.1572,0.1576,0.156,0.1523,0.1517,0.1516,0.1497,0.1492,0.1472,0.1471,0.1457,0.1434,0.1422,0.1396,0.14,0.1436,0.1376,0.1374,0.1387,0.1458,0.1476,0.1483,0.1418,0.1419,0.1419,0.146,0,0.1672,0.1666,0.1629,0.1634,0.1626,0.1582,0.1581,0.1559,0.1536,0.1526,0.1501,0.1492,0.1463,0.1455,0.1457,0.1431,0.145,0.1428,0.1417,0.1417,0.1424,0.149,0.1509,0.1549,0.1465,0.1466,0.1466,0,0.1723,0.1704,0.1708,0.167,0.1665,0.1665,0.1644,0.1635,0.1609,0.1592,0.1578,0.1548,0.1545,0.1516,0.1512,0.1498,0.1491,0.1478,0.1478,0.1476,0.1444,0.1489,0.1561,0.1567,0.1474,0.1473,0.1473,0,0.1788,0.1763,0.1762,0.1751,0.1706,0.1707,0.1689,0.1661,0.1652,0.1634,0.1627,0.161,0.16,0.1588,0.1554,0.1536,0.1554,0.1522,0.154,0.1541,0.1545,0.1546,0.1617,0.1542,0.1542,0.1542,0.1542,0,0.1841,0.1846,0.179,0.179,0.1793,0.1751,0.1756,0.1734,0.1709,0.1704,0.1665,0.1662,0.1617,0.1609,0.1583,0.1583,0.1579,0.1566,0.1559,0.1569,0.1571,0.1564,0.156,0.1543,0.1543,0.1543,0.1542,0,0.1914,0.1877,0.1873,0.1831,0.182,0.1825,0.1789,0.1787,0.1761,0.1755,0.1751,0.1711,0.1699,0.1664,0.1644,0.1626,0.1634,0.1621,0.1642,0.1637,0.1657,0.1655,0.1726,0.1733,0.1655,0.1655,0.1656,0,0.1951,0.1952,0.191,0.1902,0.1885,0.1875,0.1864,0.1823,0.1814,0.1784,0.1786,0.177,0.1755,0.1738,0.1708,0.1692,0.1678,0.1704,0.1676,0.1685,0.1678,0.1678,0.1678,0.171,0.1711,0.1712,0.1713,0,0.2019,0.2,0.1985,0.1964,0.1952,0.1934,0.1913,0.191,0.1864,0.1856,0.1842,0.1831,0.1809,0.1794,0.1773,0.1755,0.1727,0.1722,0.1725,0.1735,0.1747,0.174,0.1658,0.172,0.172,0.1719,0.1719,0.1718,0.2074,0.2073,0.2042,0.2027,0.2007,0.1989,0.1984,0.1957,0.1944,0.1922,0.1899,0.1888,0.1861,0.183,0.1814,0.1806,0.179,0.1795,0.1796,0.1798,0.1803,0.1749,0.1802,0.1802,0.1801,0.1801,0.1801,0,0.2139,0.2117,0.2103,0.2075,0.2063,0.2036,0.2012,0.2004,0.1994,0.1971,0.1957,0.1941,0.1926,0.1894,0.1876,0.1875,0.1862,0.1872,0.1872,0.1868,0.1817,0.1816,0.1883,0.1883,0.1883,0.1883,0.1883,0.1883,0.2172,0.2168,0.2146,0.2133,0.2111,0.2098,0.2086,0.2069,0.2051,0.2034,0.2021,0.1999,0.1973,0.1953,0.1938,0.1929,0.1925,0.1939,0.1926,0.188,0.1872,0.1864,0.1863,0.1939,0.1939,0.1977,0.1978,0.1978]},{"header":{"parameterUnit":"m.s-1","parameterCategory":1,"la1":30.2991,"la2":30.254,"lo1":-89.0895,"lo2":-89.0444,"dy":0.0017,"dx":0.0017,"nx":28,"ny":28,"refTime":"2025-08-21T03:00:00:Z","depth":0,"parameterNumber":3,"parameterNumberName":"V-component_of_WINDS"},"data":[0,0,0,0,0,0,0,0,0,0,0,0,0,0,0,0,0,0,0,0,0,0,0,0,0,0,0,0,0,0,0,0,0,0,0,0,0,0,0,0,0,0,0,0,0,0,0,0,0,0,0,0,0,0,0,0,0,0,-0.1883,-0.1882,0,-0.1776,-0.1775,-0.1774,-0.1747,-0.1748,-0.1748,-0.1749,-0.1637,-0.1633,-0.163,0,0,0,0,0,0,0,0,0,0,0,0,0,-0.2061,-0.2058,-0.1883,-0.1882,-0.1881,-0.1776,-0.1775,-0.1773,-0.1747,-0.1748,-0.1749,-0.1749,-0.1638,-0.1634,-0.163,0,0,0,0,0,0,0,0,0,0,0,0,0,-0.1972,-0.2057,-0.1883,-0.1855,-0.1851,-0.1777,-0.1775,-0.1773,-0.1747,-0.1748,-0.1749,-0.175,-0.164,-0.1634,-0.1629,-0.1575,0,0,-0.1612,-0.161,0,0,0,0,0,0,0,0,-0.1977,-0.1965,-0.186,-0.1857,-0.1852,-0.1776,-0.1797,-0.1706,-0.1746,-0.1786,-0.1749,-0.175,-0.1682,-0.1673,-0.1651,-0.1569,-0.1565,-0.1612,-0.1609,-0.1606,-0.1605,0,0,0,0,0,0,0,-0.1983,-0.197,-0.1841,-0.1859,-0.1854,-0.1846,-0.1835,-0.1779,-0.173,-0.1783,-0.1781,-0.1769,-0.168,-0.1656,-0.1648,-0.1563,-0.1612,-0.1607,-0.1604,-0.1602,-0.1429,-0.1428,0,0,0,0,0,0,-0.1995,-0.1975,-0.1844,-0.1838,-0.1919,-0.1842,-0.1829,-0.1799,-0.173,-0.1721,-0.1768,-0.1768,-0.1665,-0.1655,-0.1644,-0.1575,-0.1606,-0.1601,-0.1598,-0.1431,-0.1429,-0.1428,0,0,0,0,0,0,-0.1999,-0.1983,-0.1849,-0.1906,-0.1888,-0.1838,-0.1805,-0.1797,-0.1773,-0.1719,-0.171,-0.1753,-0.1665,-0.1652,-0.1592,-0.1571,-0.1599,-0.1594,-0.1432,-0.143,-0.1428,-0.1437,0,0,0,0,0,0,-0.2004,-0.1985,-0.1965,-0.1906,-0.1885,-0.1799,-0.1803,-0.1794,-0.1764,-0.1763,-0.1702,-0.1693,-0.1665,-0.16,-0.1587,-0.1564,-0.159,-0.1434,-0.1431,-0.1429,-0.1439,-0.1436,-0.1433,0,0,0,0,0,-0.201,-0.1971,-0.1964,-0.1948,-0.1859,-0.1798,-0.1786,-0.1756,-0.1762,-0.1741,-0.1706,-0.1695,-0.1575,-0.1594,-0.1579,-0.1554,-0.1435,-0.1432,-0.1429,-0.144,-0.1436,-0.1433,0,0,0,0,0,0,-0.2029,-0.1963,-0.1954,-0.1895,-0.1853,-0.1794,-0.1766,-0.1753,-0.1708,-0.1708,-0.1672,-0.1658,-0.16,-0.1571,-0.1593,-0.1497,-0.1505,-0.1499,-0.1518,-0.1515,-0.1512,-0.152,-0.1585,0,0,0,0,0,-0.2027,-0.1984,-0.1928,-0.1881,-0.186,-0.1817,-0.1789,-0.1769,-0.1723,-0.1705,-0.1666,-0.1621,-0.1573,-0.1542,-0.1495,-0.1434,-0.1419,-0.1409,-0.1406,-0.1405,-0.14,-0.1364,-0.1358,-0.1418,-0.1418,-0.1418,0,0,-0.2021,-0.1979,-0.1954,-0.1884,-0.1848,-0.1804,-0.1802,-0.1755,-0.1721,-0.1698,-0.1639,-0.1608,-0.1555,-0.1494,-0.1465,-0.1468,-0.138,-0.1401,-0.14,-0.1396,-0.136,-0.1354,-0.1349,-0.1416,-0.1416,-0.1417,0,0,-0.1987,-0.1952,-0.1908,-0.1873,-0.1819,-0.179,-0.178,-0.1722,-0.1701,-0.1642,-0.1623,-0.1581,-0.15,-0.1462,-0.1433,-0.1383,-0.1371,-0.1368,-0.1355,-0.132,-0.1316,-0.1311,-0.1293,-0.1286,-0.1364,-0.1364,-0.1364,0,-0.1986,-0.1919,-0.1887,-0.1841,-0.181,-0.1787,-0.1741,-0.1708,-0.1642,-0.162,-0.1624,-0.152,-0.1483,-0.1413,-0.14,-0.1377,-0.1363,-0.1376,-0.1319,-0.1314,-0.131,-0.1291,-0.1285,-0.1364,-0.1364,-0.1364,-0.1364,0,-0.192,-0.1874,-0.1845,-0.1782,-0.1747,-0.1702,-0.1662,-0.163,-0.1613,-0.1583,-0.1521,-0.1476,-0.1419,-0.14,-0.1383,-0.1326,-0.1329,-0.1327,-0.1334,-0.1305,-0.1287,-0.128,-0.1364,-0.1364,-0.1364,-0.1364,0,0,-0.1897,-0.1815,-0.1805,-0.1776,-0.1714,-0.1677,-0.163,-0.1574,-0.1547,-0.1502,-0.146,-0.1391,-0.1387,-0.1354,-0.1331,-0.1301,-0.1263,-0.1301,-0.13,-0.1295,-0.1197,-0.1199,-0.1192,-0.1254,-0.1253,-0.1251,-0.1201,0,-0.1855,-0.1771,-0.174,-0.167,-0.1626,-0.1602,-0.1561,-0.1518,-0.1488,-0.1445,-0.1412,-0.1363,-0.1363,-0.1342,-0.1311,-0.1274,-0.1243,-0.1277,-0.1214,-0.1212,-0.1228,-0.1183,-0.1186,-0.114,-0.1194,-0.1193,-0.1192,0,-0.1796,-0.175,-0.1676,-0.1618,-0.1599,-0.1562,-0.1508,-0.1468,-0.1417,-0.1398,-0.1359,-0.1339,-0.1286,-0.1296,-0.1223,-0.1248,-0.1219,-0.1197,-0.1194,-0.1188,-0.1201,-0.1174,-0.1125,-0.1118,-0.1181,-0.1181,-0.1182,0,-0.1786,-0.1705,-0.165,-0.1626,-0.1557,-0.1532,-0.1502,-0.1453,-0.1421,-0.1373,-0.1351,-0.1297,-0.1268,-0.1226,-0.1191,-0.1201,-0.112,-0.1127,-0.1101,-0.1102,-0.1085,-0.1087,-0.1031,-0.1067,-0.1068,-0.1068,-0.1068,0,-0.1743,-0.1699,-0.1645,-0.1611,-0.156,-0.1524,-0.1473,-0.1442,-0.1398,-0.1356,-0.1332,-0.1293,-0.1249,-0.1204,-0.1175,-0.1118,-0.1105,-0.1087,-0.108,-0.1089,-0.1091,-0.107,-0.1073,-0.1066,-0.1066,-0.1067,-0.1067,0,-0.1724,-0.1686,-0.1624,-0.1564,-0.1548,-0.1513,-0.146,-0.1426,-0.1394,-0.1342,-0.1328,-0.1278,-0.1224,-0.1184,-0.1113,-0.1094,-0.1033,-0.1026,-0.105,-0.1047,-0.1022,-0.1025,-0.0951,-0.0939,-0.0984,-0.0983,-0.0983,0,-0.1699,-0.1664,-0.16,-0.1571,-0.1541,-0.1495,-0.1462,-0.1424,-0.139,-0.1329,-0.1302,-0.1246,-0.1199,-0.1113,-0.1069,-0.1015,-0.1006,-0.0984,-0.0998,-0.1008,-0.1005,-0.1008,-0.1003,-0.0982,-0.0982,-0.0982,-0.0981,0,-0.1659,-0.1642,-0.1596,-0.1543,-0.1504,-0.146,-0.1416,-0.1393,-0.1347,-0.131,-0.1255,-0.1218,-0.1146,-0.109,-0.1031,-0.0998,-0.0981,-0.0977,-0.0968,-0.0977,-0.0993,-0.0983,-0.1045,-0.0979,-0.0979,-0.098,-0.098,-0.098,-0.1636,-0.1604,-0.1553,-0.1502,-0.1465,-0.1424,-0.1388,-0.1352,-0.1305,-0.1244,-0.1224,-0.1166,-0.1114,-0.1033,-0.0999,-0.0952,-0.0953,-0.094,-0.0936,-0.0934,-0.0934,-0.1,-0.0941,-0.0941,-0.0941,-0.0941,-0.0941,0,-0.1595,-0.1561,-0.1514,-0.1453,-0.1412,-0.14,-0.135,-0.1317,-0.1266,-0.122,-0.1174,-0.1109,-0.1054,-0.1006,-0.0948,-0.092,-0.0911,-0.0906,-0.0908,-0.09,-0.0937,-0.0951,-0.0914,-0.0914,-0.0914,-0.0914,-0.0914,-0.0914,-0.1569,-0.1513,-0.1489,-0.1413,-0.1379,-0.1323,-0.1295,-0.1256,-0.1219,-0.1147,-0.1102,-0.1071,-0.1023,-0.0962,-0.091,-0.0897,-0.0877,-0.0874,-0.0859,-0.0895,-0.0898,-0.0901,-0.0913,-0.087,-0.087,-0.0826,-0.0826,-0.0825]}]]